Flag for Canada Weather past 2 weeks in North Bay, Ontario, Canada

Now
36 °F

Clear.


Feels Like: 30 °F
Forecast: 37 / 52 °F
Wind: 7 mph from Southeast

Location: North Bay

Current Time: Apr 18, 2015 at 3:34:34 AM

Latest Report: Apr 18, 2015 at 3:00 AM


Visibility: 9 mi

Pressure: 29.93 "Hg

Humidity: 70%

Dew point: 27 °F

Location of North BayLocation

Historic Weather in North Bay — Graph

°F

North Bay temperature yesterday

Maximum temperature yesterday: 59 °F (at 3:00 PM)
Minimum temperature yesterday: 36 °F (at 11:00 PM)
Average temperature yesterday: 47 °F

Past Weeks' High & Low Weather Summary

 TemperatureHumidityPressure
High61 °F (Apr 13, 2:00 PM)100% (Apr 3, 2:00 AM)30.45 "Hg (Apr 3, 2:00 AM)
Low12 °F (Apr 5, 7:00 AM)19% (Apr 7, 6:00 PM)29.30 "Hg (Apr 10, 10:00 AM)
Average36 °F65%30.06 "Hg
* Reported Apr 3 2:00 AM — Apr 18 2:00 AM, North Bay, Weather by CustomWeather, © 2015

Note: Actual official high and low records may vary slightly from our data, if they occured in-between our weather recording intervals... More about our weather records

Advertising

North Bay weather history for previous 24 hours

 ConditionsComfort  
Time TempWeatherWind HumidityBarometerVisibility
2:00 AM
Sat, Apr 18
39 °FClear.7 mph61%29.94 "Hg9 mi
1:00 AM43 °FClear.7 mph49%29.96 "Hg9 mi
12:00 AM41 °FClear.6 mph57%29.98 "Hg9 mi
11:00 PM
Fri, Apr 17
36 °FClear.3 mph75%29.99 "Hg9 mi
10:00 PM41 °FClear.No wind61%29.99 "Hg15 mi
9:00 PM46 °FPassing clouds.6 mph43%29.98 "Hg15 mi
8:00 PM50 °FPassing clouds.5 mph37%29.96 "Hg15 mi
7:00 PM57 °FPassing clouds.9 mph27%29.95 "Hg15 mi
6:00 PM59 °FPassing clouds.12 mph29%29.94 "Hg15 mi
5:00 PM57 °FScattered clouds.13 mph44%29.94 "Hg15 mi
4:00 PM59 °FPartly sunny.10 mph39%29.95 "Hg15 mi
3:00 PM59 °FPartly sunny.14 mph45%29.96 "Hg15 mi
2:00 PM55 °FScattered clouds.10 mph55%29.96 "Hg15 mi
1:00 PM52 °FScattered clouds.9 mph67%29.96 "Hg15 mi
12:00 PM50 °FScattered clouds.6 mph71%29.97 "Hg15 mi
11:00 AM48 °FScattered clouds.7 mph76%29.97 "Hg15 mi
10:00 AM45 °FFog.7 mph87%30.00 "Hg1 mi
9:00 AM43 °FFog.6 mph93%30.00 "Hg6 mi
8:00 AM41 °FFog.8 mph100%29.99 "Hg1 mi
7:00 AM43 °FFog.7 mph100%29.97 "Hg1 mi
6:00 AM43 °FFog.7 mph100%29.97 "Hg2 mi
5:49 AM43 °FFog.8 mph100%29.97 "Hg2 mi
5:00 AM43 °FLow clouds.7 mph100%29.98 "Hg7 mi
4:00 AM43 °FLow clouds.8 mph93%29.97 "Hg9 mi
3:00 AM43 °FLow clouds.9 mph87%29.97 "Hg9 mi
Weather by CustomWeather, © 2015

See weather overviewHow to use our weather pages